Regional Weather Roundup
Issued by NWS Sterling, VA

Home | Current Version | Previous Version | Text Only | Print | Product List | Glossary Off
Versions: 1 2 3 4 5 6 7 8 9 10 11 12 13 14 15 16 17 18 19 20 21 22 23 24 25 26 27 28 29 30 31 32 33 34 35 36 37 38 39 40 41 42 43 44 45 46 47 48 49 50

000
ASUS41 KLWX 262110
RWRLWX

REGIONAL WEATHER ROUNDUP
NATIONAL WEATHER SERVICE BALTIMORE MD/WASHINGTON DC
400 PM EST SUN FEB 26 2017

Note: "FAIR" indicates few or no clouds below 12,000 feet
with no significant weather and/or obstructions to visibility.
 TC=TEMPERATURE CELSIUS

 * =Non NWS site. Station does not report precipitation (e.g. rain,
    snow, etc.), thunder, or fog.

DCZ001-MDZ009-015-VAZ040>042-051-053>054-262200-
WASHINGTON METRO

CITY           SKY/WX    TMP DP  RH WIND       PRES   REMARKS
WASHINGTON NAT MOSUNNY   49  17  28 SW8       30.16R
DULLES         MOSUNNY   48  16  27 NW9       30.14S
ANDREWS AFB    SUNNY     46  16  29 SW7       30.14R
FT BELVOIR     SUNNY     49  16  26 W9        30.15R
QUANTICO       SUNNY     51  18  27 W9        30.16S
COLLEGE PARK*  SUNNY     46  18  31 W6        30.15R
LEESBURG*      SUNNY     46  23  39 MISG      30.15R
MANASSAS*      SUNNY     49  18  29 SW6       30.14S
GAITHERSBURG*  SUNNY     45  18  33 NW10G17   30.18R

$$

MDZ006>007-011-014-262200-
BALTIMORE METRO

CITY           SKY/WX    TMP DP  RH WIND       PRES   REMARKS
BWI AIRPORT    MOSUNNY   46  19  34 NW13      30.15R
MD SCIENCE CTR   N/A     45  16  31 MISG      30.13F
MARTIN STATE   MOSUNNY   46  21  36 W15G23    30.17R
ANNAPOLIS      MOSUNNY   47  18  31 W8        30.15R
FORT MEADE*    SUNNY     45  19  36 NW6       30.17R

$$

MDZ012-015-019>023-262200-
MARYLAND EASTERN SHORE

CITY           SKY/WX    TMP DP  RH WIND       PRES   REMARKS
OCEAN CITY     SUNNY     45  18  34 NW13G22   30.15R
SALISBURY      SUNNY     45  21  38 NW12      30.15R
BAY BRIDGE AP* SUNNY     46  19  34 W8        30.16R
CAMBRIDGE*     SUNNY     45  19  36 NW9       30.16S
EASTON*        SUNNY     46  18  31 NW12      30.19R

$$

MDZ017>025-262200-
SOUTHERN MARYLAND

CITY           SKY/WX    TMP DP  RH WIND       PRES   REMARKS
PATUXENT RIVER MOSUNNY   48  22  35 W12G18    30.15R
ST INIGOES     SUNNY     49  21  33 W8        30.15R
LEONARDTOWN*   SUNNY     46  19  34 W8G16     30.17R

$$

MDZ003>005-262200-
NORTH CENTRAL MARYLAND

CITY           SKY/WX    TMP DP  RH WIND       PRES   REMARKS
FREDERICK*     MOSUNNY   43  21  42 NW6       30.18S
HAGERSTOWN APT SUNNY     42  18  37 NW14      30.14R
WESTMINSTER*   MOSUNNY   43  19  39 W13G23    30.13S

$$

MDZ501>502-262200-
WESTERN MARYLAND

CITY           SKY/WX    TMP DP  RH WIND       PRES   REMARKS
OAKLAND*       SUNNY     32  12  43 W8        30.07R WCI  25
CUMBERLAND*    SUNNY     45  12  26 W13G21    30.19R

$$

VAZ025>031-262200-
SHENANDOAH VALLEY

CITY           SKY/WX    TMP DP  RH WIND       PRES   REMARKS
WINCHESTER*    SUNNY     45  14  29 NW7       30.13R
FRONT ROYAL*   SUNNY     46  14  27 W6        30.11R
LURAY*         SUNNY     50  18  27 NW13      30.10R
NEW MARKET*    SUNNY     48   6  18 NW9       30.11R
STAUNTON*      SUNNY     49  10  20 W10G20    30.11R
WAYNESBORO*    SUNNY     48   7  18 SW9G18    30.09S

$$

WVZ021-048>050-054>055-262200-
EASTERN WEST VIRGINIA PANHANDLE

CITY           SKY/WX    TMP DP  RH WIND       PRES   REMARKS
MARTINSBURG    MOSUNNY   46  15  28 NW12      30.13S
PETERSBURG*    SUNNY     46  15  27 W13G22    30.14S

$$

VAZ036>039-050-262200-
CENTRAL FOOTHILLS

CITY           SKY/WX    TMP DP  RH WIND       PRES   REMARKS
CHARLOTTESVILL SUNNY     53  12  19 SW8       30.10F
CULPEPER*      SUNNY     51  17  26 SW10      30.14S
ORANGE*        SUNNY     50  14  23 W7        30.13F
GORDONSVILLE*  SUNNY     51  16  25 CALM      30.11F
WARRENTON*     SUNNY     51   7  16 W5        30.13S

$$

VAZ055>057-262200-
NORTH AND CENTRAL PIEDMONT

CITY           SKY/WX    TMP DP  RH WIND       PRES   REMARKS
FREDERICKSBRG* SUNNY     51  21  30 SW8       30.14S
STAFFORD*      SUNNY     49  17  28 CALM      30.18S

$$

NCZ024-NYZ072-PAZ021-071-VAZ022-071-262200-
OTHER REGIONAL OBSERVATIONS

CITY           SKY/WX    TMP DP  RH WIND       PRES   REMARKS
NEW YORK CITY  MOSUNNY   42  14  32 W10       30.07R
PHILADELPHIA   MOSUNNY   43  15  32 W15G23    30.13R
PITTSBURGH     MOSUNNY   39  16  39 SW10      30.12F
ROANOKE        SUNNY     52  12  20 NW15      30.16R
RICHMOND       SUNNY     52  17  25 NW8       30.15R
RALEIGH        SUNNY     55  13  18 VRB6G17   30.18R

$$

ANZ530>537-262200-
MARINE OBSERVATIONS

STATION/POSITION TIME  TEMP    WIND        PRES
                       AIR SEA DIR/SP/G
                 (UTC) (F)     (DEG/KT/KT) (MB)
THOMAS PT LIGHT  2100   45 44  300/  9/ 11   N/A
BALT KEY BRIDGE  2048   43     270/ 13/ 16 1021.2R
COVE POINT       2048   45     330/  9/ 13 1021.6R
LEWISETTA        2048   45 47   10/ 10/ 14 1020.8R
SOLOMONS ISLAND  2048   47 45  270/  7/ 14   N/A
PINEY POINT      2048          350/  7/  7   N/A

$$




USA.gov is the U.S. government's official web portal to all federal, state and local government web resources and services.